{"data":{"norad_id":45695,"intl_designator":"2020-035AQ","name":"STARLINK-1420","alt_names":[],"object_type":"PAYLOAD","status":"ACTIVE","operator":null,"country":"US","launch_date":"2020-06-04","launch_site_code":"AFETR","launch_vehicle":null,"mission":null,"orbit_class":"UNKNOWN","rcs_meters":null,"size_class":null,"mass_kg":null,"dimensions":null,"purposes":["comms"],"wikipedia_slug":null,"has_3d_model":false,"image_url":null,"decayed_at":null,"tle_current":{"epoch":"2026-09-19T23:53:47.982336Z","epoch_age_seconds":65596,"freshness":"FRESH","line1":"1 45695U 20035AQ  26262.99569424  .00125864  00000+0  46654-3 0  9998","line2":"2 45695  53.0359 141.2547 0005213 121.4043 238.7491 15.87240593349886","mean_motion":15.87240593,"eccentricity":0.0005213,"inclination_deg":53.0359,"raan_deg":141.2547,"arg_perigee_deg":121.4043,"mean_anomaly_deg":238.7491,"bstar":0.00046654,"rev_number":34988,"period_min":90.723486177877,"perigee_km":306.53665660572,"apogee_km":313.50973242452,"semimajor_km":6688.1601945151,"source":"CELESTRAK","updated_at":"2026-09-20T09:00:38.453299Z"}}}